Location: Kawakawa
(35.3830°S, 174.0670°E)
Time: 18:41:00
(UTC+13:00)

Altair - Pass Details

Date: 14 December 2019
Orbit: 1502 x 1682 km, 47.2° (Epoch: 17 January)

Event Time Altitude Azimuth Distance (km) Brightness Sun altitude
Rises 15:49:59 0° 236° (SW) 4,921 10.5 55.0°
Reaches altitude 10° 15:53:07 10° 237° (WSW) 3,945 10.2 54.3°
Maximum altitude 16:03:20 82° 322° (NW) 1,706 9.0 52.3°
Drops below altitude 10° 16:13:29 10° 47° (NE) 3,922 9.5 50.2°
Sets 16:16:36 0° 48° (NE) 4,891 9.9 49.6°
